Location: Pedholt
(56.0260°N, 10.2097°E)
Time: 06:29:33
(UTC+00:00)

Cosmos 1459 Rocket - Pass Details

Date: 14 July 2020
Orbit: 938 x 999 km, 83.0° (Epoch: 14 August)

Event Time Altitude Azimuth Distance (km) Brightness Sun altitude
Exits shadow 00:52:48 12° 185° (S) 2,546 5.6 -10.1°
Maximum altitude 00:58:34 83° 100° (E) 971 4.0 -9.9°
Drops below altitude 10° 01:04:48 10° 13° (NNE) 2,720 7.9 -9.5°
Sets 01:07:20 0° 13° (NNE) 3,680 9.0 -9.4°
